Flag for Canada Weather past 2 weeks in Corner Brook, Newfoundland and Labrador, Canada

Now
28 °F

Light snow. Overcast.


Feels Like: 21 °F
Forecast: N/A
Wind: 7 mph from West

Location: Deer Lake

Current Time: Apr 1, 2015 at 8:32:47 PM

Latest Report: Apr 1, 2015 at 7:30 PM


Visibility: 6 mi

Pressure: 29.63 "Hg

Humidity: 80%

Dew point: 23 °F

Location of Corner BrookLocation

Historic Weather in Corner Brook — Graph

°F

Corner Brook temperature yesterday

Maximum temperature yesterday: 37 °F (at 1:30 PM)
Minimum temperature yesterday: 12 °F (at 5:30 AM)
Average temperature yesterday: 26 °F

Past Weeks' High & Low Weather Summary

 TemperatureHumidityPressure
High41 °F (Mar 27, 4:30 PM)100% (Mar 18, 2:30 AM)30.27 "Hg (Mar 18, 2:30 AM)
Low-4 °F (Mar 25, 7:30 AM)34% (Mar 29, 2:30 PM)28.86 "Hg (Mar 22, 4:30 PM)
Average27 °F75%29.68 "Hg
* Reported Mar 17 7:30 PM — Apr 1 7:30 PM, Corner Brook, Weather by CustomWeather, © 2015

Note: Actual official high and low records may vary slightly from our data, if they occured in-between our weather recording intervals... More about our weather records

Advertising

Corner Brook weather history for previous 24 hours

 ConditionsComfort  
Time TempWeatherWind HumidityBarometerVisibility
7:30 PM
Wed, Apr 1
28 °FLight snow. Overcast.7 mph80%29.63 "Hg6 mi
6:30 PM30 °FLight snow. Overcast.7 mph86%29.62 "Hg3 mi
5:30 PM34 °FLight snow. Mostly cloudy.14 mph70%29.62 "Hg6 mi
4:30 PM34 °FLight snow. Broken clouds.14 mph75%29.62 "Hg6 mi
4:19 PM36 °FLight snow. Partly sunny.15 mph70%29.62 "Hg6 mi
3:30 PM36 °FPartly sunny.14 mph65%29.62 "Hg15 mi
2:30 PM36 °FPartly sunny.14 mph65%29.63 "Hg15 mi
1:30 PM34 °FOvercast.20 mph75%29.65 "Hg15 mi
12:30 PM34 °FPartly sunny.21 mph81%29.64 "Hg15 mi
11:30 AM36 °FPartly sunny.17 mph70%29.62 "Hg15 mi
10:30 AM32 °FPartly sunny.16 mph87%29.61 "Hg15 mi
9:30 AM30 °FPartly sunny.14 mph80%29.59 "Hg12 mi
8:30 AM28 °FOvercast.9 mph86%29.58 "Hg12 mi
7:30 AM28 °FLight snow. Partly sunny.8 mph86%29.56 "Hg12 mi
6:30 AM28 °FLight snow. Overcast.10 mph80%29.52 "Hg10 mi
5:30 AM28 °FLight snow. Overcast.12 mph86%29.49 "Hg8 mi
4:30 AM28 °FLight snow. Mostly cloudy.12 mph93%29.46 "Hg6 mi
3:30 AM28 °FLight snow. Mostly cloudy.10 mph100%29.44 "Hg6 mi
2:30 AM28 °FLight snow. Mostly cloudy.No wind93%29.43 "Hg6 mi
1:30 AM28 °FChilly.5 mph93%29.42 "Hg4 mi
12:30 AM28 °FLight snow. Mostly cloudy.8 mph93%29.43 "Hg2 mi
11:30 PM
Tue, Mar 31
28 °FLight snow. Mostly cloudy.8 mph93%29.44 "Hg6 mi
10:30 PM28 °FLight snow. Overcast.5 mph93%29.47 "Hg6 mi
9:30 PM28 °FLight snow. Mostly cloudy.6 mph93%29.49 "Hg6 mi
8:30 PM28 °FLight snow. Mostly cloudy.3 mph93%29.49 "Hg4 mi
Weather by CustomWeather, © 2015

See weather overviewHow to use our weather pages